Regional Weather Roundup
Issued by NWS

Home | Current Version | Previous Version | Text Only | Print | Product List | Glossary On
Versions: 1 2 3 4 5 6 7 8 9 10 11 12 13 14 15 16 17 18 19 20 21 22 23 24 25 26 27 28 29 30 31 32 33 34 35 36 37 38 39 40 41 42 43 44 45 46 47 48 49 50
000
ASUS44 KOUN 310210
RWROK

WEATHER ROUNDUP FOR OKLAHOMA
NATIONAL WEATHER SERVICE NORMAN OK
900 PM CDT WED JUL 30 2014

NOTE: "FAIR" INDICATES FEW OR NO CLOUDS BELOW 12,000 FEET WITH NO
      SIGNIFICANT WEATHER AND/OR OBSTRUCTIONS TO VISIBILITY.

OKZ001>007-009>012-014-015-017-310300-
NORTHWEST OKLAHOMA AND THE PANHANDLE

CITY           SKY/WX    TMP DP  RH WIND       PRES   REMARKS
GAGE           LGT RAIN  66  64  93 N17G24    30.13R
ENID/WOODRING  DRIZZLE   68  68 100 NE15      30.02S FOG
$$

OKZ016-021>023-033>039-044-045-310300-
SOUTHWEST OKLAHOMA

CITY           SKY/WX    TMP DP  RH WIND       PRES   REMARKS
LAWTON/REGL    CLOUDY    73  67  81 N15G25    29.97R
LAWTON/FT SILL CLOUDY    72  68  89 N16       29.97R
FREDERICK      MOCLDY    74  68  81 N22       29.95R
CLINTON        CLOUDY    68  65  90 N17       30.07R
HOBART         CLOUDY    70  65  84 N16       30.03R
ALTUS AFB      CLOUDY    72  69  89 N15G21    29.99R
$$

OKZ018>020-024>031-310300-
CENTRAL OKLAHOMA

CITY           SKY/WX    TMP DP  RH WIND       PRES   REMARKS
OKLAHOMA CITY  CLOUDY    70  67  90 NE9       29.97S
OKC/WILEY POST LGT RAIN  70  68  93 NE10      29.98S
OKC/TINKER AFB DRIZZLE   69  67  94 NE13      29.98S
STILLWATER     LGT RAIN  68  66  93 E9        30.01S
GUTHRIE        CLOUDY    69  67  93 MISG      30.00R
$$

OKZ008-013-054>072-310300-
NORTHEAST OKLAHOMA

CITY           SKY/WX    TMP DP  RH WIND       PRES   REMARKS
TULSA          RAIN      69  69 100 E7        30.03R FOG
TULSA/JONES    RAIN      69  68  96 NE5       30.02F
PONCA CITY     LGT RAIN  68  66  93 NE13      30.05R FOG
BARTLESVILLE   LGT RAIN  66  65  96 E8        30.07S FOG
MUSKOGEE       RAIN      69  68  96 S5        30.04S
$$

OKZ032-040>043-046>053-073>077-310300-
SOUTH CENTRAL/SOUTHEAST OKLAHOMA

CITY           SKY/WX    TMP DP  RH WIND       PRES   REMARKS
ARDMORE/DWNTWN CLOUDY    73  70  88 SE8       29.91F
MCALESTER      LGT RAIN  71  69  93 VRB7      30.00S
$$



USA.gov is the U.S. government's official web portal to all federal, state and local government web resources and services.